[[{"header":{"parameterUnit":"m.s-1","parameterCategory":1,"la1":30.2991,"la2":30.254,"lo1":-89.0895,"lo2":-89.0444,"dx":0.0017,"dy":0.0017,"nx":28,"ny":28,"refTime":"2023-01-09T03:00:00:Z","depth":0,"parameterNumber":2,"parameterNumberName":"U-component_of_WINDS"},"data":[0,0,0,0,0,0,0,0,0,0,0,0,0,0,0,0,0,0,0,0,0,0,0,0,0,0,0,0,0,0,0,0,0,0,0,0,0,0,0,0,0,0,0,0,0,0,0,0,0,0,0,0,0,0,0,0,0,0,1.2747,1.2747,0,1.2723,1.2722,1.2722,1.2698,1.2698,1.2698,1.2697,1.2672,1.2671,1.2671,0,0,0,0,0,0,0,0,0,0,0,0,0,1.2773,1.2772,1.2747,1.2747,1.2747,1.2723,1.2722,1.2722,1.2698,1.2698,1.2697,1.2697,1.2672,1.2671,1.2671,0,0,0,0,0,0,0,0,0,0,0,0,0,1.2756,1.2772,1.2748,1.2732,1.273,1.2723,1.2722,1.2722,1.2698,1.2698,1.2697,1.2697,1.2672,1.2671,1.2671,1.2676,0,0,1.2669,1.2669,0,0,0,0,0,0,0,0,1.2757,1.2755,1.2735,1.2733,1.2731,1.2713,1.2722,1.2707,1.2698,1.2711,1.2697,1.2697,1.2686,1.2684,1.268,1.2675,1.2674,1.2669,1.2668,1.2668,1.2668,0,0,0,0,0,0,0,1.2758,1.2756,1.2738,1.2734,1.2732,1.2726,1.2723,1.2719,1.2701,1.2709,1.2708,1.2705,1.2685,1.2681,1.268,1.2674,1.2669,1.2668,1.2668,1.2668,1.267,1.2671,0,0,0,0,0,0,1.2762,1.2757,1.2738,1.2737,1.2743,1.2726,1.2723,1.2719,1.2701,1.2698,1.2705,1.2704,1.2682,1.268,1.2679,1.2684,1.2668,1.2668,1.2667,1.267,1.2671,1.2671,0,0,0,0,0,0,1.2763,1.2761,1.2739,1.2747,1.2743,1.2726,1.2722,1.2719,1.2715,1.2698,1.2695,1.2705,1.2682,1.2679,1.2677,1.2682,1.2667,1.2667,1.267,1.267,1.2671,1.2694,0,0,0,0,0,0,1.2763,1.2761,1.2763,1.2747,1.2743,1.2739,1.2723,1.2719,1.2714,1.2712,1.2697,1.2694,1.2681,1.2678,1.2676,1.2681,1.2666,1.2669,1.267,1.2671,1.2693,1.2695,1.2698,0,0,0,0,0,1.2764,1.2771,1.2764,1.2761,1.2746,1.2739,1.2737,1.2723,1.2715,1.2717,1.2706,1.2694,1.2682,1.2678,1.2676,1.2681,1.2669,1.267,1.2671,1.2691,1.2695,1.2697,0,0,0,0,0,0,1.2789,1.2769,1.276,1.2762,1.2752,1.2735,1.2737,1.2727,1.2719,1.2718,1.27,1.2696,1.2696,1.2688,1.2684,1.2685,1.2673,1.2674,1.269,1.2693,1.2695,1.2698,1.2666,0,0,0,0,0,1.2794,1.2791,1.2773,1.2776,1.2772,1.2755,1.2752,1.2741,1.2731,1.2727,1.2715,1.2705,1.2699,1.2695,1.2689,1.2691,1.2687,1.2693,1.2696,1.2698,1.2699,1.2698,1.2701,1.2674,1.2674,1.2674,0,0,1.2805,1.2794,1.2793,1.278,1.2772,1.2768,1.2752,1.2749,1.2746,1.2726,1.2723,1.2714,1.2702,1.2702,1.2701,1.2695,1.2705,1.2699,1.2701,1.2701,1.27,1.2702,1.2705,1.2675,1.2675,1.2675,0,0,1.2824,1.2815,1.2817,1.2808,1.2796,1.2784,1.2785,1.2769,1.2762,1.2759,1.2743,1.2739,1.2729,1.2721,1.2715,1.2729,1.2718,1.2727,1.2741,1.2741,1.2743,1.2745,1.275,1.2752,1.2728,1.2728,1.2728,0,1.284,1.2835,1.2819,1.2816,1.2811,1.2792,1.2793,1.2786,1.2772,1.2768,1.2761,1.2748,1.2738,1.2735,1.2738,1.2734,1.2734,1.273,1.2744,1.2745,1.2747,1.2751,1.2753,1.2729,1.2729,1.2729,1.2729,0,1.2854,1.2851,1.2853,1.284,1.2834,1.2834,1.2817,1.2814,1.2803,1.2793,1.2789,1.2776,1.2766,1.2765,1.2755,1.276,1.2757,1.2747,1.2736,1.2751,1.2755,1.2757,1.2731,1.2731,1.273,1.273,0,0,1.2889,1.2866,1.2867,1.2861,1.2845,1.2841,1.2839,1.2829,1.2827,1.2817,1.2815,1.2806,1.2796,1.279,1.2778,1.2778,1.279,1.2769,1.2768,1.2773,1.2795,1.2803,1.2805,1.2782,1.2782,1.2783,1.2796,0,1.2906,1.2902,1.2887,1.2887,1.2883,1.2864,1.2862,1.2852,1.2841,1.2836,1.2824,1.2818,1.2806,1.2802,1.2801,1.2789,1.2794,1.2788,1.278,1.278,1.2784,1.2807,1.2816,1.2829,1.2797,1.2798,1.2798,0,1.2925,1.2917,1.2916,1.29,1.2897,1.2896,1.2885,1.288,1.2868,1.286,1.2852,1.2839,1.2835,1.2824,1.2818,1.2814,1.2809,1.2803,1.2803,1.2802,1.279,1.2807,1.2833,1.2835,1.28,1.28,1.28,0,1.2951,1.2939,1.2937,1.2932,1.2913,1.2912,1.2904,1.289,1.2885,1.2876,1.2872,1.2862,1.2857,1.2849,1.2833,1.2826,1.2829,1.2816,1.2822,1.2822,1.2824,1.2824,1.285,1.282,1.282,1.282,1.282,0,1.2972,1.2972,1.2949,1.2948,1.2947,1.2929,1.2929,1.2919,1.2907,1.2904,1.2886,1.2883,1.2862,1.2856,1.2844,1.2841,1.2838,1.2832,1.2828,1.2833,1.2834,1.2831,1.283,1.2821,1.2821,1.2821,1.2821,0,1.3001,1.2985,1.2982,1.2963,1.2958,1.2959,1.2943,1.2941,1.2928,1.2924,1.2922,1.2903,1.2895,1.2878,1.2865,1.2857,1.2856,1.285,1.2861,1.2859,1.2866,1.2865,1.289,1.2892,1.2861,1.2862,1.2862,0,1.3016,1.3016,1.2997,1.2993,1.2985,1.2979,1.2974,1.2955,1.295,1.2935,1.2935,1.2925,1.2917,1.2905,1.2889,1.2879,1.2873,1.2882,1.2872,1.2876,1.2873,1.2874,1.2874,1.2885,1.2886,1.2886,1.2886,0,1.3043,1.3035,1.3028,1.3018,1.3012,1.3003,1.2993,1.2991,1.297,1.2965,1.2956,1.295,1.2936,1.2927,1.2914,1.2905,1.2892,1.2889,1.289,1.2896,1.2902,1.2899,1.2868,1.2889,1.2889,1.2889,1.2889,1.2888,1.3066,1.3065,1.3051,1.3043,1.3034,1.3025,1.3022,1.3009,1.3002,1.299,1.2979,1.2971,1.2957,1.2939,1.293,1.2923,1.2917,1.2918,1.2919,1.2919,1.2921,1.2903,1.2921,1.2921,1.292,1.292,1.292,0,1.3093,1.3083,1.3076,1.3062,1.3056,1.3044,1.3032,1.3028,1.3021,1.3009,1.3001,1.2991,1.2981,1.2964,1.2953,1.2951,1.2945,1.2949,1.2949,1.2947,1.2928,1.2928,1.2954,1.2954,1.2954,1.2954,1.2954,1.2954,1.3106,1.3104,1.3094,1.3086,1.3075,1.3068,1.3062,1.3053,1.3044,1.3033,1.3025,1.3014,1.3,1.2987,1.2978,1.2973,1.297,1.2976,1.2969,1.2952,1.2949,1.2946,1.2946,1.2975,1.2975,1.2989,1.2989,1.2989]},{"header":{"parameterUnit":"m.s-1","parameterCategory":1,"la1":30.2991,"la2":30.254,"lo1":-89.0895,"lo2":-89.0444,"dx":0.0017,"dy":0.0017,"nx":28,"ny":28,"refTime":"2023-01-09T03:00:00:Z","depth":0,"parameterNumber":3,"parameterNumberName":"V-component_of_WINDS"},"data":[0,0,0,0,0,0,0,0,0,0,0,0,0,0,0,0,0,0,0,0,0,0,0,0,0,0,0,0,0,0,0,0,0,0,0,0,0,0,0,0,0,0,0,0,0,0,0,0,0,0,0,0,0,0,0,0,0,0,3.2907,3.2907,0,3.286,3.2859,3.2859,3.2827,3.2827,3.2827,3.2826,3.2774,3.2773,3.2772,0,0,0,0,0,0,0,0,0,0,0,0,0,3.2968,3.2967,3.2908,3.2907,3.2906,3.286,3.2859,3.2859,3.2827,3.2827,3.2827,3.2826,3.2775,3.2773,3.2772,0,0,0,0,0,0,0,0,0,0,0,0,0,3.2933,3.2967,3.2908,3.2885,3.2883,3.286,3.2859,3.2858,3.2827,3.2827,3.2827,3.2826,3.2775,3.2773,3.2772,3.2766,0,0,3.2766,3.2765,0,0,0,0,0,0,0,0,3.2935,3.2931,3.2889,3.2887,3.2884,3.2849,3.2861,3.2827,3.2827,3.2848,3.2826,3.2826,3.2799,3.2795,3.2787,3.2764,3.2762,3.2766,3.2765,3.2764,3.2763,0,0,0,0,0,0,0,3.2938,3.2933,3.2888,3.2888,3.2885,3.2876,3.2871,3.2855,3.2826,3.2846,3.2844,3.2839,3.2798,3.2789,3.2785,3.2761,3.2766,3.2764,3.2763,3.2762,3.2731,3.2731,0,0,0,0,0,0,3.2944,3.2935,3.289,3.2887,3.2909,3.2876,3.287,3.2861,3.2826,3.282,3.2839,3.2838,3.2792,3.2788,3.2784,3.2775,3.2764,3.2762,3.2761,3.273,3.2731,3.2731,0,0,0,0,0,0,3.2946,3.294,3.2892,3.291,3.2904,3.2875,3.2865,3.286,3.2851,3.2821,3.2815,3.2836,3.2792,3.2786,3.2771,3.2773,3.2761,3.276,3.273,3.2731,3.2731,3.2758,0,0,0,0,0,0,3.2947,3.2941,3.294,3.2911,3.2903,3.2881,3.2865,3.2859,3.2848,3.2846,3.2816,3.281,3.2791,3.2774,3.2769,3.277,3.2758,3.273,3.273,3.2731,3.2757,3.276,3.2762,0,0,0,0,0,3.295,3.2949,3.294,3.2935,3.2901,3.2882,3.2877,3.2855,3.2849,3.2846,3.2827,3.2811,3.2773,3.2773,3.2767,3.2767,3.273,3.273,3.2731,3.2756,3.2759,3.2762,0,0,0,0,0,0,3.2977,3.2944,3.2934,3.2924,3.2906,3.2876,3.2873,3.2859,3.2842,3.284,3.2813,3.2807,3.2794,3.2779,3.2779,3.276,3.275,3.2749,3.2771,3.2773,3.2776,3.278,3.2757,0,0,0,0,0,3.2983,3.2971,3.2942,3.2936,3.2928,3.2902,3.2893,3.2878,3.2858,3.285,3.2829,3.2809,3.2792,3.2782,3.2765,3.2755,3.2747,3.2752,3.2755,3.2757,3.2756,3.2749,3.2751,3.2733,3.2733,3.2733,0,0,3.2993,3.2973,3.2967,3.2941,3.2925,3.2913,3.2896,3.2883,3.2874,3.2847,3.2832,3.2816,3.2792,3.278,3.2773,3.2767,3.276,3.2757,3.2759,3.2758,3.275,3.2752,3.2754,3.2733,3.2733,3.2733,0,0,3.3005,3.2989,3.2982,3.2967,3.2944,3.2927,3.2925,3.2898,3.2886,3.2871,3.2851,3.2838,3.2811,3.2794,3.2782,3.2788,3.2773,3.2783,3.2795,3.2789,3.279,3.2791,3.2793,3.2794,3.2783,3.2783,3.2783,0,3.302,3.3002,3.298,3.2969,3.2958,3.2935,3.2927,3.2913,3.2885,3.2877,3.2871,3.2835,3.2817,3.28,3.2802,3.2793,3.279,3.2787,3.2792,3.2793,3.2794,3.2795,3.2796,3.2785,3.2785,3.2784,3.2784,0,3.3022,3.3009,3.3006,3.2981,3.2969,3.296,3.2936,3.2926,3.2912,3.2896,3.288,3.2858,3.2836,3.2831,3.2816,3.2811,3.2808,3.2797,3.2786,3.2797,3.2798,3.2799,3.2787,3.2786,3.2786,3.2785,0,0,3.305,3.3013,3.3013,3.3001,3.2974,3.2963,3.2952,3.2932,3.2924,3.2905,3.2895,3.2872,3.2862,3.2849,3.2832,3.2827,3.2832,3.2816,3.2815,3.282,3.2825,3.2834,3.2835,3.2822,3.2822,3.2822,3.2827,0,3.3058,3.3039,3.3019,3.3006,3.2994,3.2972,3.2962,3.2944,3.2928,3.2914,3.2896,3.288,3.2868,3.286,3.2853,3.2833,3.2833,3.2832,3.2812,3.2811,3.2819,3.2836,3.2844,3.285,3.2828,3.2828,3.2828,0,3.3065,3.3049,3.3035,3.3009,3.3003,3.2995,3.2975,3.2963,3.2941,3.293,3.2915,3.2898,3.2884,3.2874,3.2855,3.2855,3.2845,3.2834,3.2833,3.283,3.282,3.2833,3.2852,3.2853,3.2828,3.2828,3.2828,0,3.3087,3.3062,3.305,3.3041,3.301,3.3005,3.2992,3.297,3.2959,3.2941,3.2933,3.2913,3.2902,3.2887,3.2864,3.2859,3.2847,3.2835,3.2836,3.2837,3.2835,3.2835,3.2852,3.2829,3.2829,3.2829,3.2829,0,3.3098,3.3091,3.306,3.3053,3.3044,3.302,3.3011,3.2996,3.2977,3.2965,3.2944,3.2934,3.2905,3.2891,3.2873,3.2859,3.2854,3.2844,3.2839,3.2846,3.2847,3.2839,3.2838,3.2829,3.2829,3.2829,3.2829,0,3.3122,3.3101,3.3087,3.3059,3.3052,3.3046,3.3022,3.3014,3.2997,3.2983,3.2978,3.2951,3.2933,3.2909,3.2883,3.2871,3.286,3.2852,3.2868,3.2865,3.2868,3.2868,3.288,3.288,3.2857,3.2857,3.2857,0,3.313,3.3124,3.3096,3.3088,3.3076,3.3062,3.3051,3.3027,3.3017,3.2992,3.2986,3.2967,3.2951,3.2923,3.29,3.2881,3.2872,3.2878,3.2869,3.2876,3.2872,3.2873,3.2872,3.288,3.2881,3.2881,3.2881,0,3.3148,3.3138,3.3124,3.3106,3.3094,3.3078,3.3061,3.3055,3.3028,3.3016,3.2999,3.2986,3.296,3.2941,3.2919,3.2903,3.2888,3.2884,3.2883,3.289,3.2899,3.2894,3.2874,3.2884,3.2884,3.2883,3.2883,3.2883,3.3164,3.3158,3.3137,3.3122,3.3107,3.3092,3.3083,3.3065,3.305,3.3029,3.3015,3.2998,3.2975,3.2943,3.2929,3.2914,3.2908,3.2907,3.2907,3.2907,3.2909,3.2902,3.291,3.291,3.291,3.291,3.291,0,3.3181,3.3166,3.3152,3.313,3.3118,3.3105,3.3086,3.3076,3.3062,3.3043,3.3028,3.3007,3.2988,3.2964,3.2944,3.2937,3.2929,3.2932,3.2932,3.2929,3.2916,3.2919,3.2939,3.2939,3.2939,3.2939,3.2939,3.2939,3.3188,3.3176,3.3164,3.3145,3.313,3.3114,3.3104,3.309,3.3075,3.3053,3.3038,3.3023,3.3001,3.2979,3.2961,3.2954,3.2948,3.2953,3.2944,3.2933,3.293,3.2927,3.293,3.2952,3.2952,3.2959,3.2959,3.2959]}]]